Home   Weather   St. Veit an der Glan   Past weeks

Flag for Austria Past Weather in St. Veit an der Glan, Carinthia, Austria — Yesterday and Last 2 Weeks

Now
25 °F

Passing clouds.


Feels Like: N/A
Forecast: 23 / 47 °F
Wind: N/A

Location: Klagenfurt-Flughafen

Current Time: Dec 9, 2016 at 3:14:19 am

Latest Report: Dec 9, 2016 at 2:00 am


Visibility: 8 mi

Pressure: 30.58 "Hg

Humidity: 91%

Dew Point: 23 °F

Location of St. Veit an der GlanLocation

Past Weather in St. Veit an der Glan — Graph

°F

St. Veit an der Glan Temperature Yesterday

Maximum temperature yesterday: 38 °F (at 2:00 pm)
Minimum temperature yesterday: 20 °F (at 8:00 am)
Average temperature yesterday: 27 °F

High & Low Weather Summary for the Past Weeks

 TemperatureHumidityPressure
High54 °F (Dec 2, 3:00 pm)100% (Nov 24, 1:00 am)30.78 "Hg (Nov 24, 1:00 am)
Low18 °F (Dec 7, 7:00 am)28% (Nov 29, 3:00 pm)29.86 "Hg (Nov 27, 2:00 pm)
Average33 °F83%30.32 "Hg
* Reported Nov 24 1:00 am — Dec 9 1:00 am, St. Veit an der Glan, Weather by CustomWeather, © 2016

Note: Actual official high and low records may vary slightly from our data, if they occured in-between our weather recording intervals... More about our weather records

Advertising

St. Veit an der Glan Weather History for the Previous 24 Hours

Scroll right to see more
 ConditionsComfort  
Time TempWeatherWind HumidityBarometerVisibility
1:00 am
Fri, Dec 9
25 °FCold.N/A91%30.60 "Hg6 mi
12:00 am25 °FChilly.N/A91%30.60 "Hg7 mi
11:00 pm
Thu, Dec 8
26 °FPassing clouds.N/A91%30.62 "Hg7 mi
10:00 pm26 °FPassing clouds.N/A90%30.61 "Hg6 mi
8:00 pm28 °FPassing clouds.N/A87%30.62 "Hg7 mi
7:00 pm29 °FClear.N/A86%30.62 "Hg8 mi
6:00 pm30 °FClear.N/A84%30.61 "Hg9 mi
5:00 pm32 °FPassing clouds.N/A78%30.60 "Hg11 mi
4:00 pm35 °FPassing clouds.N/A72%30.59 "Hg16 mi
3:00 pm38 °FPassing clouds.N/A65%30.59 "Hg15 mi
2:00 pm38 °FPassing clouds.N/A64%30.60 "Hg11 mi
1:00 pm37 °FPassing clouds.N/A65%30.63 "Hg9 mi
12:00 pm35 °FPassing clouds.N/A71%30.67 "Hg11 mi
11:00 am31 °FPassing clouds.N/A79%30.71 "Hg13 mi
10:00 am26 °FPassing clouds.N/A89%30.75 "Hg9 mi
9:00 am23 °FPassing clouds.N/A89%30.76 "Hg6 mi
8:00 am20 °FScattered clouds.N/A90%30.77 "Hg7 mi
7:00 am21 °FPassing clouds.N/A91%30.77 "Hg6 mi
6:00 am20 °FCold.N/A90%30.77 "Hg7 mi
5:00 am21 °FCold.N/A91%30.76 "Hg7 mi
4:00 am22 °FCold.N/A90%30.76 "Hg6 mi
Weather by CustomWeather, © 2016

See weather overviewHow to use our weather pages